Regional Weather Roundup
Issued by NWS

Home | Current Version | Previous Version | Text Only | Print | Product List | Glossary On
Versions: 1 2 3 4 5 6 7 8 9 10 11 12 13 14 15 16 17 18 19 20 21 22 23 24 25 26 27 28 29 30 31 32 33 34 35 36 37 38 39 40 41 42 43 44 45 46 47 48 49 50
000
ASUS43 KLMK 181310
RWRKY
KENTUCKY REGIONAL WEATHER ROUNDUP
NATIONAL WEATHER SERVICE LOUISVILLE KY
800 AM EST MON DEC 18 2017

NOTE "FAIR" INDICATES FEW OR NO CLOUDS BELOW 12,000 FEET
WITH NO SIGNIFICANT WEATHER AND/OR OBSTRUCTIONS TO VISIBILITY.

KYZ001>023-026-027-061>063-070>075-181400-
WESTERN AND SOUTH CENTRAL KENTUCKY

CITY           SKY/WX    TMP DP  RH WIND       PRES   REMARKS
PADUCAH        CLOUDY    45  42  89 SW6       30.13S
HENDERSON      CLOUDY    44  43  96 SW7       30.13R
OWENSBORO      CLOUDY    44  32  62 S9        30.12S HAZE
HOPKINSVILLE   CLOUDY    45  45 100 SW5       30.14R
BOWLING GREEN  CLOUDY    47  46  97 SW3       30.15S FOG
GLASGOW        CLOUDY   N/A N/A N/A CALM      30.15S FOG
$$

KYZ024-025-028>034-038-045-046-053-181400-
NORTH CENTRAL KENTUCKY

CITY           SKY/WX    TMP DP  RH WIND       PRES   REMARKS
LOUISVILLE/SDF CLOUDY    46  42  86 S7        30.12S
LOUISVILLE/LOU CLOUDY    45  44  97 S8        30.12S
FORT KNOX      DRIZZLE   43  43 100 S8        30.12S FOG
$$

KYZ035>037-039>044-047>052-055>060-089>105-181400-
NORTHEAST KENTUCKY

CITY           SKY/WX    TMP DP  RH WIND       PRES   REMARKS
LEXINGTON      FOG       44  41  89 SW9       30.12R VSB 1/4
COVINGTON      DRZL/FOG  42  42 100 SW9       30.07F VSB 1/2
FRANKFORT      CLOUDY    44  41  89 SW10      30.11R FOG
$$

KYZ054-064>069-076>088-106>120-181400-
SOUTHEAST KENTUCKY

CITY           SKY/WX    TMP DP  RH WIND       PRES   REMARKS
JACKSON        CLOUDY    43  42  97 SW5       30.13S FOG
LONDON         CLOUDY    44  43  96 S6        30.15S FOG
SOMERSET       CLOUDY    43  43 100 CALM      30.16F FOG
MIDDLESBORO    CLOUDY    41  41 100 CALM      30.18S FOG
MONTICELLO     CLOUDY    45  45 100 CALM      30.17R FOG
$$




USA.gov is the U.S. government's official web portal to all federal, state and local government web resources and services.